Time,TemperatureF,DewpointF,PressureIn,WindDirection,WindDirectionDegrees,WindSpeedMPH,WindSpeedGustMPH,Humidity,HourlyPrecipIn,Conditions,Clouds,dailyrainin,SoftwareType,DateUTC
2013-06-16 00:03:00,61.2,31.1,29.75,West,268,5.0,10.0,32,0.00,,,0.00,meteohub,2013-06-16 06:03:00,
2013-06-16 00:09:00,61.3,31.3,29.75,West,260,6.0,10.0,32,0.00,,,0.00,meteohub,2013-06-16 06:09:00,
2013-06-16 00:15:00,61.5,30.6,29.75,West,259,5.0,10.0,31,0.00,,,0.00,meteohub,2013-06-16 06:15:00,
2013-06-16 00:21:00,61.5,30.6,29.75,West,262,9.0,11.0,31,0.00,,,0.00,meteohub,2013-06-16 06:21:00,
2013-06-16 00:27:00,61.7,30.7,29.75,West,276,11.0,12.0,31,0.00,,,0.00,meteohub,2013-06-16 06:27:00,
2013-06-16 00:33:00,61.9,30.9,29.75,West,278,10.0,12.0,31,0.00,,,0.00,meteohub,2013-06-16 06:33:00,
2013-06-16 00:39:00,61.9,30.9,29.75,West,274,7.0,13.0,31,0.00,,,0.00,meteohub,2013-06-16 06:39:00,
2013-06-16 00:45:00,61.7,30.7,29.75,West,277,8.0,13.0,31,0.00,,,0.00,meteohub,2013-06-16 06:45:00,
2013-06-16 00:51:00,61.5,30.6,29.75,West,274,10.0,13.0,31,0.00,,,0.00,meteohub,2013-06-16 06:51:00,
2013-06-16 00:57:00,61.2,31.1,29.75,West,275,8.0,14.0,32,0.00,,,0.00,meteohub,2013-06-16 06:57:00,
2013-06-16 01:03:00,60.6,31.3,29.75,WNW,283,5.0,14.0,33,0.00,,,0.00,meteohub,2013-06-16 07:03:00,
2013-06-16 01:09:00,60.1,30.9,29.76,WNW,287,7.0,14.0,33,0.00,,,0.00,meteohub,2013-06-16 07:09:00,
2013-06-16 01:15:00,59.5,31.1,29.76,WNW,294,6.0,11.0,34,0.00,,,0.00,meteohub,2013-06-16 07:15:00,
2013-06-16 01:21:00,59.4,30.9,29.76,WNW,284,4.0,10.0,34,0.00,,,0.00,meteohub,2013-06-16 07:21:00,
2013-06-16 01:27:00,59.4,30.9,29.76,WNW,290,5.0,10.0,34,0.00,,,0.00,meteohub,2013-06-16 07:27:00,
2013-06-16 01:33:00,58.8,30.6,29.77,WNW,284,1.0,10.0,34,0.00,,,0.00,meteohub,2013-06-16 07:33:00,
2013-06-16 01:40:00,58.1,31.3,29.77,WNW,284,0.0,10.0,36,0.00,,,0.00,meteohub,2013-06-16 07:40:00,
2013-06-16 01:46:00,57.4,31.3,29.77,WNW,284,0.0,7.0,37,0.00,,,0.00,meteohub,2013-06-16 07:46:00,
2013-06-16 01:52:00,56.7,31.3,29.77,WNW,284,0.0,3.0,38,0.00,,,0.00,meteohub,2013-06-16 07:52:00,
2013-06-16 01:58:00,56.3,31.6,29.77,WNW,284,0.0,0.0,39,0.00,,,0.00,meteohub,2013-06-16 07:58:00,
2013-06-16 02:04:00,56.3,31.1,29.76,WNW,284,3.0,3.0,38,0.00,,,0.00,meteohub,2013-06-16 08:04:00,
2013-06-16 02:10:00,56.7,31.3,29.76,WNW,284,0.0,4.0,38,0.00,,,0.00,meteohub,2013-06-16 08:10:00,
2013-06-16 02:16:00,56.7,30.7,29.76,WNW,284,0.0,4.0,37,0.00,,,0.00,meteohub,2013-06-16 08:16:00,
2013-06-16 02:22:00,56.5,30.6,29.76,WNW,284,1.0,1.0,37,0.00,,,0.00,meteohub,2013-06-16 08:22:00,
2013-06-16 02:28:00,55.9,30.7,29.76,WNW,284,4.0,4.0,38,0.00,,,0.00,meteohub,2013-06-16 08:28:00,
2013-06-16 02:34:00,55.8,30.6,29.75,WNW,284,3.0,5.0,38,0.00,,,0.00,meteohub,2013-06-16 08:34:00,
2013-06-16 02:40:00,55.4,30.2,29.75,WNW,284,2.0,6.0,38,0.00,,,0.00,meteohub,2013-06-16 08:40:00,
2013-06-16 02:46:00,55.0,29.8,29.75,WNW,284,2.0,6.0,38,0.00,,,0.00,meteohub,2013-06-16 08:46:00,
2013-06-16 02:52:00,55.2,30.7,29.75,WNW,284,4.0,6.0,39,0.00,,,0.00,meteohub,2013-06-16 08:52:00,
2013-06-16 02:58:00,55.2,30.0,29.74,West,278,5.0,7.0,38,0.00,,,0.00,meteohub,2013-06-16 08:58:00,
2013-06-16 03:04:00,56.7,30.7,29.74,West,276,4.0,8.0,37,0.00,,,0.00,meteohub,2013-06-16 09:04:00,
2013-06-16 03:10:00,57.6,30.0,29.74,West,276,4.0,9.0,35,0.00,,,0.00,meteohub,2013-06-16 09:10:00,
2013-06-16 03:16:00,57.6,30.0,29.73,West,276,2.0,9.0,35,0.00,,,0.00,meteohub,2013-06-16 09:16:00,
2013-06-16 03:22:00,57.2,29.8,29.73,West,276,2.0,6.0,35,0.00,,,0.00,meteohub,2013-06-16 09:22:00,
2013-06-16 03:28:00,56.8,30.2,29.73,West,276,1.0,6.0,36,0.00,,,0.00,meteohub,2013-06-16 09:28:00,
2013-06-16 03:34:00,56.1,30.2,29.73,West,276,3.0,6.0,37,0.00,,,0.00,meteohub,2013-06-16 09:34:00,
2013-06-16 03:40:00,55.2,30.0,29.73,West,276,3.0,6.0,38,0.00,,,0.00,meteohub,2013-06-16 09:40:00,
2013-06-16 03:46:00,54.9,30.4,29.73,West,276,2.0,7.0,39,0.00,,,0.00,meteohub,2013-06-16 09:46:00,
2013-06-16 03:52:00,54.7,30.2,29.72,West,276,4.0,8.0,39,0.00,,,0.00,meteohub,2013-06-16 09:52:00,
2013-06-16 03:58:00,54.9,30.4,29.72,West,278,5.0,8.0,39,0.00,,,0.00,meteohub,2013-06-16 09:58:00,
2013-06-16 04:04:00,55.0,30.6,29.72,West,278,4.0,8.0,39,0.00,,,0.00,meteohub,2013-06-16 10:04:00,
2013-06-16 04:10:00,54.9,30.4,29.72,West,278,4.0,7.0,39,0.00,,,0.00,meteohub,2013-06-16 10:10:00,
2013-06-16 04:16:00,54.9,30.4,29.72,West,280,2.0,7.0,39,0.00,,,0.00,meteohub,2013-06-16 10:16:00,
2013-06-16 04:22:00,54.9,30.4,29.72,West,280,2.0,6.0,39,0.00,,,0.00,meteohub,2013-06-16 10:22:00,
2013-06-16 04:28:00,54.1,30.9,29.73,North,354,1.0,6.0,41,0.00,,,0.00,meteohub,2013-06-16 10:28:00,
2013-06-16 04:34:00,53.6,30.4,29.74,North,354,2.0,6.0,41,0.00,,,0.00,meteohub,2013-06-16 10:34:00,
2013-06-16 04:40:00,52.9,30.4,29.73,North,354,1.0,6.0,42,0.00,,,0.00,meteohub,2013-06-16 10:40:00,
2013-06-16 04:46:00,52.5,30.0,29.73,North,353,2.0,6.0,42,0.00,,,0.00,meteohub,2013-06-16 10:46:00,
2013-06-16 04:52:00,53.1,30.6,29.74,North,351,6.0,6.0,42,0.00,,,0.00,meteohub,2013-06-16 10:52:00,
2013-06-16 04:58:00,53.2,30.7,29.74,NW,314,4.0,6.0,42,0.00,,,0.00,meteohub,2013-06-16 10:58:00,
2013-06-16 05:04:00,52.9,30.4,29.74,NW,314,0.0,6.0,42,0.00,,,0.00,meteohub,2013-06-16 11:04:00,
2013-06-16 05:10:00,52.3,30.6,29.75,NW,314,1.0,6.0,43,0.00,,,0.00,meteohub,2013-06-16 11:10:00,
2013-06-16 05:16:00,52.3,31.1,29.75,NW,314,4.0,5.0,44,0.00,,,0.00,meteohub,2013-06-16 11:16:00,
2013-06-16 05:22:00,52.5,31.3,29.75,NW,314,2.0,5.0,44,0.00,,,0.00,meteohub,2013-06-16 11:22:00,
2013-06-16 05:29:00,53.2,31.3,29.76,West,274,2.0,8.0,43,0.00,,,0.00,meteohub,2013-06-16 11:29:00,
2013-06-16 05:35:00,53.2,31.3,29.76,West,274,3.0,8.0,43,0.00,,,0.00,meteohub,2013-06-16 11:35:00,
2013-06-16 05:41:00,53.2,31.8,29.76,West,274,3.0,4.0,44,0.00,,,0.00,meteohub,2013-06-16 11:41:00,
2013-06-16 05:47:00,52.9,31.6,29.76,West,274,1.0,4.0,44,0.00,,,0.00,meteohub,2013-06-16 11:47:00,
2013-06-16 05:53:00,52.2,30.9,29.76,West,274,2.0,4.0,44,0.00,,,0.00,meteohub,2013-06-16 11:53:00,
2013-06-16 05:59:00,51.4,30.7,29.77,West,274,1.0,3.0,45,0.00,,,0.00,meteohub,2013-06-16 11:59:00,
2013-06-16 06:05:00,51.3,30.6,29.77,West,274,0.0,4.0,45,0.00,,,0.00,meteohub,2013-06-16 12:05:00,
2013-06-16 06:11:00,51.8,31.1,29.77,West,274,3.0,4.0,45,0.00,,,0.00,meteohub,2013-06-16 12:11:00,
2013-06-16 06:17:00,52.9,33.3,29.77,West,274,2.0,4.0,47,0.00,,,0.00,meteohub,2013-06-16 12:17:00,
2013-06-16 06:23:00,54.1,32.7,29.77,West,274,0.0,4.0,44,0.00,,,0.00,meteohub,2013-06-16 12:23:00,
2013-06-16 06:29:00,55.2,33.1,29.77,West,274,0.0,4.0,43,0.00,,,0.00,meteohub,2013-06-16 12:29:00,
2013-06-16 06:35:00,56.1,33.3,29.77,West,274,0.0,3.0,42,0.00,,,0.00,meteohub,2013-06-16 12:35:00,
2013-06-16 06:41:00,56.5,33.1,29.77,West,274,0.0,0.0,41,0.00,,,0.00,meteohub,2013-06-16 12:41:00,
2013-06-16 06:47:00,56.5,33.6,29.78,West,274,1.0,2.0,42,0.00,,,0.00,meteohub,2013-06-16 12:47:00,
2013-06-16 06:53:00,56.5,33.1,29.77,West,274,1.0,2.0,41,0.00,,,0.00,meteohub,2013-06-16 12:53:00,
2013-06-16 06:59:00,56.7,32.5,29.77,West,274,2.0,4.0,40,0.00,,,0.00,meteohub,2013-06-16 12:59:00,
2013-06-16 07:05:00,57.0,32.9,29.77,West,274,3.0,4.0,40,0.00,,,0.00,meteohub,2013-06-16 13:05:00,
2013-06-16 07:11:00,57.7,33.6,29.77,West,274,0.0,5.0,40,0.00,,,0.00,meteohub,2013-06-16 13:11:00,
2013-06-16 07:17:00,58.5,33.6,29.77,West,274,2.0,6.0,39,0.00,,,0.00,meteohub,2013-06-16 13:17:00,
2013-06-16 07:23:00,59.4,33.1,29.76,West,274,1.0,6.0,37,0.00,,,0.00,meteohub,2013-06-16 13:23:00,
2013-06-16 07:29:00,60.1,33.8,29.76,West,274,4.0,6.0,37,0.00,,,0.00,meteohub,2013-06-16 13:29:00,
2013-06-16 07:35:00,60.4,34.7,29.76,West,267,6.0,8.0,38,0.00,,,0.00,meteohub,2013-06-16 13:35:00,
2013-06-16 07:41:00,61.0,35.8,29.76,SW,219,3.0,11.0,39,0.00,,,0.00,meteohub,2013-06-16 13:41:00,
2013-06-16 07:47:00,61.2,36.7,29.76,SW,219,2.0,11.0,40,0.00,,,0.00,meteohub,2013-06-16 13:47:00,
2013-06-16 07:53:00,61.5,35.1,29.77,SW,219,4.0,11.0,37,0.00,,,0.00,meteohub,2013-06-16 13:53:00,
2013-06-16 07:59:00,61.9,34.7,29.76,SW,215,4.0,6.0,36,0.00,,,0.00,meteohub,2013-06-16 13:59:00,
2013-06-16 08:05:00,62.1,34.9,29.76,SW,215,3.0,7.0,36,0.00,,,0.00,meteohub,2013-06-16 14:05:00,
2013-06-16 08:11:00,62.2,34.2,29.76,SW,215,1.0,7.0,35,0.00,,,0.00,meteohub,2013-06-16 14:11:00,
2013-06-16 08:17:00,62.4,33.6,29.76,SSW,201,0.0,7.0,34,0.00,,,0.00,meteohub,2013-06-16 14:17:00,
2013-06-16 08:23:00,63.1,33.6,29.76,South,190,4.0,7.0,33,0.00,,,0.00,meteohub,2013-06-16 14:23:00,
2013-06-16 08:29:00,63.3,33.8,29.76,South,189,2.0,7.0,33,0.00,,,0.00,meteohub,2013-06-16 14:29:00,
2013-06-16 08:35:00,63.3,32.9,29.76,SE,139,6.0,7.0,32,0.00,,,0.00,meteohub,2013-06-16 14:35:00,
2013-06-16 08:41:00,63.7,34.0,29.76,ESE,106,6.0,9.0,33,0.00,,,0.00,meteohub,2013-06-16 14:41:00,
2013-06-16 08:47:00,63.9,33.4,29.76,ESE,106,5.0,9.0,32,0.00,,,0.00,meteohub,2013-06-16 14:47:00,
2013-06-16 08:53:00,64.0,34.3,29.75,ESE,106,5.0,9.0,33,0.00,,,0.00,meteohub,2013-06-16 14:53:00,
2013-06-16 08:59:00,64.9,34.3,29.75,ESE,106,2.0,8.0,32,0.00,,,0.00,meteohub,2013-06-16 14:59:00,
2013-06-16 09:05:00,65.1,35.2,29.75,ESE,106,3.0,8.0,33,0.00,,,0.00,meteohub,2013-06-16 15:05:00,
2013-06-16 09:12:00,65.7,35.1,29.76,ESE,106,2.0,8.0,32,0.00,,,0.00,meteohub,2013-06-16 15:12:00,
2013-06-16 09:18:00,65.8,35.2,29.76,ESE,106,3.0,9.0,32,0.00,,,0.00,meteohub,2013-06-16 15:18:00,
2013-06-16 09:24:00,66.0,35.2,29.76,ESE,111,5.0,9.0,32,0.00,,,0.00,meteohub,2013-06-16 15:24:00,
2013-06-16 09:30:00,66.0,35.2,29.76,ESE,112,3.0,9.0,32,0.00,,,0.00,meteohub,2013-06-16 15:30:00,
2013-06-16 09:36:00,65.7,35.8,29.75,SE,124,4.0,10.0,33,0.00,,,0.00,meteohub,2013-06-16 15:36:00,
2013-06-16 09:42:00,65.8,36.7,29.75,SE,124,7.0,9.0,34,0.00,,,0.00,meteohub,2013-06-16 15:42:00,
2013-06-16 09:48:00,65.8,36.0,29.75,ESE,116,4.0,9.0,33,0.00,,,0.00,meteohub,2013-06-16 15:48:00,
2013-06-16 09:54:00,66.7,36.0,29.74,ESE,116,5.0,8.0,32,0.00,,,0.00,meteohub,2013-06-16 15:54:00,
2013-06-16 10:00:00,67.6,36.7,29.74,ESE,116,4.0,8.0,32,0.00,,,0.00,meteohub,2013-06-16 16:00:00,
2013-06-16 10:06:00,67.8,36.1,29.74,ESE,120,9.0,10.0,31,0.00,,,0.00,meteohub,2013-06-16 16:06:00,
2013-06-16 10:12:00,68.2,35.6,29.74,ESE,114,4.0,12.0,30,0.00,,,0.00,meteohub,2013-06-16 16:12:00,
2013-06-16 10:18:00,68.7,36.9,29.73,ESE,114,5.0,12.0,31,0.00,,,0.00,meteohub,2013-06-16 16:18:00,
2013-06-16 10:24:00,69.8,35.2,29.73,East,100,9.0,12.0,28,0.00,,,0.00,meteohub,2013-06-16 16:24:00,
2013-06-16 10:30:00,71.2,37.4,29.73,ESE,116,5.0,10.0,29,0.00,,,0.00,meteohub,2013-06-16 16:30:00,
2013-06-16 10:36:00,71.4,37.6,29.73,SSW,205,3.0,13.0,29,0.00,,,0.00,meteohub,2013-06-16 16:36:00,
2013-06-16 10:42:00,72.0,32.2,29.73,SW,227,5.0,11.0,23,0.00,,,0.00,meteohub,2013-06-16 16:42:00,
2013-06-16 10:48:00,73.2,32.2,29.73,West,264,3.0,15.0,22,0.00,,,0.00,meteohub,2013-06-16 16:48:00,
2013-06-16 10:54:00,73.8,31.5,29.73,SW,232,11.0,18.0,21,0.00,,,0.00,meteohub,2013-06-16 16:54:00,
2013-06-16 11:00:00,73.8,31.5,29.73,SSW,209,12.0,18.0,21,0.00,,,0.00,meteohub,2013-06-16 17:00:00,
2013-06-16 11:06:00,72.7,30.6,29.73,WSW,238,14.0,18.0,21,0.00,,,0.00,meteohub,2013-06-16 17:06:00,
2013-06-16 11:12:00,72.0,31.1,29.73,SW,219,7.0,18.0,22,0.00,,,0.00,meteohub,2013-06-16 17:12:00,
2013-06-16 11:18:00,72.9,30.6,29.73,WSW,244,10.0,18.0,21,0.00,,,0.00,meteohub,2013-06-16 17:18:00,
2013-06-16 11:24:00,73.4,31.1,29.73,WSW,255,9.0,21.0,21,0.00,,,0.00,meteohub,2013-06-16 17:24:00,
2013-06-16 11:30:00,73.0,30.7,29.73,WSW,249,5.0,21.0,21,0.00,,,0.00,meteohub,2013-06-16 17:30:00,
2013-06-16 11:36:00,73.0,30.7,29.72,WSW,258,6.0,17.0,21,0.00,,,0.00,meteohub,2013-06-16 17:36:00,
2013-06-16 11:42:00,73.6,31.3,29.72,WSW,257,12.0,17.0,21,0.00,,,0.00,meteohub,2013-06-16 17:42:00,
2013-06-16 11:48:00,74.1,29.3,29.72,WNW,288,10.0,18.0,19,0.00,,,0.00,meteohub,2013-06-16 17:48:00,
2013-06-16 11:54:00,74.5,29.5,29.72,West,266,14.0,18.0,19,0.00,,,0.00,meteohub,2013-06-16 17:54:00,
2013-06-16 12:00:00,73.2,29.7,29.72,WSW,237,12.0,17.0,20,0.00,,,0.00,meteohub,2013-06-16 18:00:00,
2013-06-16 12:06:00,73.2,28.4,29.72,SW,223,7.0,20.0,19,0.00,,,0.00,meteohub,2013-06-16 18:06:00,
2013-06-16 12:12:00,74.1,29.3,29.71,SSW,198,7.0,20.0,19,0.00,,,0.00,meteohub,2013-06-16 18:12:00,
2013-06-16 12:18:00,73.9,27.7,29.71,WSW,253,8.0,20.0,18,0.00,,,0.00,meteohub,2013-06-16 18:18:00,
2013-06-16 12:24:00,73.2,27.1,29.71,WSW,243,8.0,16.0,18,0.00,,,0.00,meteohub,2013-06-16 18:24:00,
2013-06-16 12:30:00,73.8,28.9,29.71,West,270,6.0,21.0,19,0.00,,,0.00,meteohub,2013-06-16 18:30:00,
2013-06-16 12:36:00,75.2,27.3,29.71,WSW,249,12.0,21.0,17,0.00,,,0.00,meteohub,2013-06-16 18:36:00,
2013-06-16 12:42:00,74.8,28.4,29.71,WSW,241,7.0,22.0,18,0.00,,,0.00,meteohub,2013-06-16 18:42:00,
2013-06-16 12:48:00,74.1,29.3,29.70,SW,220,3.0,22.0,19,0.00,,,0.00,meteohub,2013-06-16 18:48:00,
2013-06-16 12:54:00,74.7,30.9,29.70,West,270,6.0,20.0,20,0.00,,,0.00,meteohub,2013-06-16 18:54:00,
2013-06-16 13:01:00,76.3,29.7,29.70,NW,311,6.0,12.0,18,0.00,,,0.00,meteohub,2013-06-16 19:01:00,
2013-06-16 13:07:00,75.7,27.9,29.70,West,264,8.0,12.0,17,0.00,,,0.00,meteohub,2013-06-16 19:07:00,
2013-06-16 13:12:00,74.7,28.4,29.70,SW,225,10.0,16.0,18,0.00,,,0.00,meteohub,2013-06-16 19:12:00,
2013-06-16 13:19:00,73.6,28.8,29.71,WNW,286,7.0,16.0,19,0.00,,,0.00,meteohub,2013-06-16 19:19:00,
2013-06-16 13:25:00,73.6,28.8,29.71,WSW,255,13.0,20.0,19,0.00,,,0.00,meteohub,2013-06-16 19:25:00,
2013-06-16 13:31:00,73.0,29.7,29.71,SW,221,7.0,19.0,20,0.00,,,0.00,meteohub,2013-06-16 19:31:00,
2013-06-16 13:37:00,72.3,30.2,29.72,SW,220,14.0,19.0,21,0.00,,,0.00,meteohub,2013-06-16 19:37:00,
2013-06-16 13:43:00,72.0,31.1,29.72,WSW,245,10.0,20.0,22,0.00,,,0.00,meteohub,2013-06-16 19:43:00,
2013-06-16 13:49:00,71.4,31.6,29.73,WSW,237,11.0,20.0,23,0.00,,,0.00,meteohub,2013-06-16 19:49:00,
2013-06-16 13:55:00,71.1,28.0,29.72,WSW,251,14.0,20.0,20,0.00,,,0.00,meteohub,2013-06-16 19:55:00,
2013-06-16 14:01:00,69.6,32.2,29.72,WSW,237,12.0,21.0,25,0.00,,,0.00,meteohub,2013-06-16 20:01:00,
2013-06-16 14:07:00,68.0,33.6,29.73,SW,226,13.0,27.0,28,0.00,,,0.00,meteohub,2013-06-16 20:07:00,
2013-06-16 14:13:00,68.0,34.5,29.73,WSW,240,9.0,27.0,29,0.00,,,0.00,meteohub,2013-06-16 20:13:00,
2013-06-16 14:19:00,67.8,35.2,29.73,SSW,210,11.0,25.0,30,0.00,,,0.00,meteohub,2013-06-16 20:19:00,
2013-06-16 14:25:00,68.4,33.1,29.72,WSW,251,10.0,25.0,27,0.00,,,0.00,meteohub,2013-06-16 20:25:00,
2013-06-16 14:31:00,68.7,30.4,29.73,SW,218,8.0,26.0,24,0.00,,,0.00,meteohub,2013-06-16 20:31:00,
2013-06-16 14:37:00,68.7,32.4,29.73,SSW,211,7.0,26.0,26,0.00,,,0.00,meteohub,2013-06-16 20:37:00,
2013-06-16 14:43:00,69.3,32.9,29.73,SSW,213,7.0,18.0,26,0.00,,,0.00,meteohub,2013-06-16 20:43:00,
2013-06-16 14:49:00,69.4,33.1,29.74,SSW,211,9.0,18.0,26,0.00,,,0.00,meteohub,2013-06-16 20:49:00,
2013-06-16 14:55:00,69.6,30.2,29.74,WSW,242,9.0,14.0,23,0.00,,,0.00,meteohub,2013-06-16 20:55:00,
2013-06-16 15:01:00,69.4,28.9,29.74,WSW,257,3.0,22.0,22,0.00,,,0.00,meteohub,2013-06-16 21:01:00,
2013-06-16 15:07:00,69.4,28.9,29.74,West,268,11.0,22.0,22,0.00,,,0.00,meteohub,2013-06-16 21:07:00,
2013-06-16 15:13:00,68.9,29.7,29.74,WSW,256,6.0,22.0,23,0.00,,,0.00,meteohub,2013-06-16 21:13:00,
2013-06-16 15:19:00,68.7,32.4,29.75,WNW,293,14.0,18.0,26,0.00,,,0.00,meteohub,2013-06-16 21:19:00,
2013-06-16 15:25:00,68.0,32.7,29.75,NW,313,5.0,16.0,27,0.00,,,0.00,meteohub,2013-06-16 21:25:00,
2013-06-16 15:31:00,68.4,33.1,29.75,NW,304,1.0,16.0,27,0.00,,,0.00,meteohub,2013-06-16 21:31:00,
2013-06-16 15:37:00,68.7,32.4,29.75,NW,306,7.0,16.0,26,0.00,,,0.00,meteohub,2013-06-16 21:37:00,
2013-06-16 15:43:00,69.3,32.0,29.75,WNW,295,7.0,13.0,25,0.00,,,0.00,meteohub,2013-06-16 21:43:00,
2013-06-16 15:49:00,70.2,35.6,29.75,SSE,155,9.0,10.0,28,0.00,,,0.00,meteohub,2013-06-16 21:49:00,
2013-06-16 15:55:00,66.9,39.0,29.75,South,178,15.0,28.0,36,0.00,,,0.00,meteohub,2013-06-16 21:55:00,
2013-06-16 16:01:00,64.6,39.7,29.75,South,178,8.0,28.0,40,0.00,,,0.00,meteohub,2013-06-16 22:01:00,
2013-06-16 16:07:00,64.2,38.7,29.75,SSW,210,6.0,28.0,39,0.00,,,0.00,meteohub,2013-06-16 22:07:00,
2013-06-16 16:13:00,64.6,38.5,29.75,South,186,7.0,16.0,38,0.00,,,0.00,meteohub,2013-06-16 22:13:00,
2013-06-16 16:19:00,64.2,38.1,29.75,South,170,6.0,14.0,38,0.00,,,0.00,meteohub,2013-06-16 22:19:00,
2013-06-16 16:25:00,64.0,37.9,29.75,South,169,5.0,12.0,38,0.00,,,0.00,meteohub,2013-06-16 22:25:00,
2013-06-16 16:31:00,64.0,37.9,29.75,SSE,168,3.0,10.0,38,0.00,,,0.00,meteohub,2013-06-16 22:31:00,
2013-06-16 16:37:00,64.2,37.4,29.75,SSE,168,4.0,8.0,37,0.00,,,0.00,meteohub,2013-06-16 22:37:00,
2013-06-16 16:43:00,64.9,37.4,29.75,ENE,58,8.0,8.0,36,0.00,,,0.00,meteohub,2013-06-16 22:43:00,
2013-06-16 16:50:00,64.8,36.5,29.76,NNE,30,4.0,10.0,35,0.00,,,0.00,meteohub,2013-06-16 22:50:00,
2013-06-16 16:56:00,64.9,36.0,29.76,NNE,23,12.0,18.0,34,0.00,,,0.00,meteohub,2013-06-16 22:56:00,
2013-06-16 17:02:00,64.9,36.0,29.76,NNE,22,9.0,18.0,34,0.00,,,0.00,meteohub,2013-06-16 23:02:00,
2013-06-16 17:08:00,65.1,36.9,29.76,North,0,9.0,18.0,35,0.00,,,0.00,meteohub,2013-06-16 23:08:00,
2013-06-16 17:14:00,64.8,38.5,29.77,NNW,341,7.0,16.0,38,0.00,,,0.00,meteohub,2013-06-16 23:14:00,
2013-06-16 17:20:00,64.0,37.2,29.77,NNE,22,9.0,16.0,37,0.00,,,0.00,meteohub,2013-06-16 23:20:00,
2013-06-16 17:26:00,63.5,38.7,29.77,North,10,8.0,15.0,40,0.00,,,0.00,meteohub,2013-06-16 23:26:00,
2013-06-16 17:32:00,63.1,37.8,29.77,North,10,3.0,13.0,39,0.00,,,0.00,meteohub,2013-06-16 23:32:00,
2013-06-16 17:38:00,63.1,37.8,29.78,North,349,4.0,12.0,39,0.00,,,0.00,meteohub,2013-06-16 23:38:00,
2013-06-16 17:44:00,63.5,37.4,29.77,NE,43,4.0,12.0,38,0.00,,,0.00,meteohub,2013-06-16 23:44:00,
2013-06-16 17:50:00,63.9,37.8,29.77,NE,39,4.0,8.0,38,0.00,,,0.00,meteohub,2013-06-16 23:50:00,
2013-06-16 17:56:00,64.2,37.4,29.77,NNE,33,1.0,11.0,37,0.00,,,0.00,meteohub,2013-06-16 23:56:00,
2013-06-16 18:02:00,64.8,37.9,29.76,NE,34,3.0,11.0,37,0.00,,,0.00,meteohub,2013-06-17 00:02:00,
2013-06-16 18:08:00,64.8,37.2,29.76,ENE,62,2.0,8.0,36,0.00,,,0.00,meteohub,2013-06-17 00:08:00,
2013-06-16 18:14:00,64.9,38.1,29.75,East,85,7.0,9.0,37,0.00,,,0.00,meteohub,2013-06-17 00:14:00,
2013-06-16 18:20:00,65.3,39.7,29.75,ESE,104,7.0,10.0,39,0.00,,,0.00,meteohub,2013-06-17 00:20:00,
2013-06-16 18:26:00,64.9,38.7,29.76,ENE,71,8.0,11.0,38,0.00,,,0.00,meteohub,2013-06-17 00:26:00,
2013-06-16 18:32:00,64.4,38.3,29.77,NNE,14,8.0,11.0,38,0.00,,,0.00,meteohub,2013-06-17 00:32:00,
2013-06-16 18:38:00,63.3,37.9,29.77,NNE,14,15.0,15.0,39,0.00,,,0.00,meteohub,2013-06-17 00:38:00,
2013-06-16 18:44:00,62.2,38.8,29.78,North,10,14.0,17.0,42,0.00,,,0.00,meteohub,2013-06-17 00:44:00,
2013-06-16 18:50:00,61.2,39.0,29.78,North,10,13.0,18.0,44,0.00,,,0.00,meteohub,2013-06-17 00:50:00,
2013-06-16 18:56:00,61.2,39.7,29.78,NNW,348,9.0,18.0,45,0.00,,,0.00,meteohub,2013-06-17 00:56:00,
2013-06-16 19:02:00,60.6,39.2,29.78,NNW,345,10.0,17.0,45,0.00,,,0.00,meteohub,2013-06-17 01:02:00,
2013-06-16 19:08:00,60.4,39.6,29.78,NNE,18,14.0,15.0,46,0.00,,,0.00,meteohub,2013-06-17 01:08:00,
2013-06-16 19:14:00,60.3,39.4,29.78,NNE,23,10.0,15.0,46,0.00,,,0.00,meteohub,2013-06-17 01:14:00,
2013-06-16 19:20:00,60.1,39.2,29.78,NE,35,9.0,15.0,46,0.00,,,0.00,meteohub,2013-06-17 01:20:00,
2013-06-16 19:26:00,60.1,39.2,29.78,NNE,25,7.0,14.0,46,0.00,,,0.00,meteohub,2013-06-17 01:26:00,
2013-06-16 19:32:00,59.9,39.6,29.78,North,350,17.0,17.0,47,0.00,,,0.00,meteohub,2013-06-17 01:32:00,
2013-06-16 19:38:00,59.5,39.4,29.78,North,0,12.0,17.0,47,0.00,,,0.00,meteohub,2013-06-17 01:38:00,
2013-06-16 19:44:00,59.5,38.7,29.78,North,5,4.0,17.0,46,0.00,,,0.00,meteohub,2013-06-17 01:44:00,
2013-06-16 19:50:00,59.5,39.4,29.79,North,5,1.0,14.0,47,0.00,,,0.00,meteohub,2013-06-17 01:50:00,
2013-06-16 19:56:00,59.4,38.7,29.79,North,5,3.0,10.0,46,0.00,,,0.00,meteohub,2013-06-17 01:56:00,
2013-06-16 20:02:00,59.0,38.3,29.80,North,5,1.0,8.0,46,0.00,,,0.00,meteohub,2013-06-17 02:02:00,
2013-06-16 20:08:00,58.3,39.2,29.79,North,5,0.0,6.0,49,0.00,,,0.00,meteohub,2013-06-17 02:08:00,
2013-06-16 20:14:00,57.4,39.4,29.79,North,5,2.0,4.0,51,0.00,,,0.00,meteohub,2013-06-17 02:14:00,
2013-06-16 20:20:00,56.5,39.0,29.79,North,5,3.0,5.0,52,0.00,,,0.00,meteohub,2013-06-17 02:20:00,
2013-06-16 20:27:00,56.1,38.7,29.79,North,5,3.0,5.0,52,0.00,,,0.00,meteohub,2013-06-17 02:27:00,
2013-06-16 20:32:00,55.9,38.5,29.79,North,5,2.0,5.0,52,0.00,,,0.00,meteohub,2013-06-17 02:32:00,
2013-06-16 20:39:00,55.8,38.5,29.79,North,5,0.0,5.0,52,0.00,,,0.00,meteohub,2013-06-17 02:39:00,
2013-06-16 20:45:00,55.2,37.4,29.78,North,5,2.0,4.0,51,0.00,,,0.00,meteohub,2013-06-17 02:45:00,
2013-06-16 20:51:00,54.7,37.4,29.78,North,5,1.0,3.0,52,0.00,,,0.00,meteohub,2013-06-17 02:51:00,
2013-06-16 20:57:00,54.3,37.0,29.79,North,5,2.0,4.0,52,0.00,,,0.00,meteohub,2013-06-17 02:57:00,
2013-06-16 21:03:00,54.3,37.0,29.80,NW,311,7.0,7.0,52,0.00,,,0.00,meteohub,2013-06-17 03:03:00,
2013-06-16 21:09:00,54.7,37.4,29.81,WNW,295,5.0,7.0,52,0.00,,,0.00,meteohub,2013-06-17 03:09:00,
2013-06-16 21:15:00,55.0,37.2,29.80,West,278,5.0,9.0,51,0.00,,,0.00,meteohub,2013-06-17 03:15:00,
2013-06-16 21:21:00,55.2,37.4,29.80,West,278,1.0,9.0,51,0.00,,,0.00,meteohub,2013-06-17 03:21:00,
2013-06-16 21:27:00,55.2,37.4,29.80,West,278,0.0,9.0,51,0.00,,,0.00,meteohub,2013-06-17 03:27:00,
2013-06-16 21:33:00,55.0,37.2,29.80,West,278,1.0,7.0,51,0.00,,,0.00,meteohub,2013-06-17 03:33:00,
2013-06-16 21:39:00,54.9,37.0,29.80,West,278,3.0,3.0,51,0.00,,,0.00,meteohub,2013-06-17 03:39:00,
2013-06-16 21:45:00,54.5,38.1,29.81,NNE,24,6.0,10.0,54,0.00,,,0.00,meteohub,2013-06-17 03:45:00,
2013-06-16 21:51:00,54.0,37.2,29.81,NNE,20,0.0,13.0,53,0.00,,,0.00,meteohub,2013-06-17 03:51:00,
2013-06-16 21:57:00,53.8,37.9,29.80,NNE,20,0.0,13.0,55,0.00,,,0.00,meteohub,2013-06-17 03:57:00,
2013-06-16 22:02:00,53.4,37.6,29.80,NNE,20,0.0,7.0,55,0.00,,,0.00,meteohub,2013-06-17 04:02:00,
2013-06-16 22:03:00,53.4,37.6,29.80,NNE,20,1.0,7.0,55,0.00,,,0.00,meteohub,2013-06-17 04:03:00,
2013-06-16 22:06:00,53.2,37.4,29.81,NNE,20,0.0,3.0,55,0.00,,,0.00,meteohub,2013-06-17 04:06:00,
2013-06-16 22:09:00,52.9,37.6,29.81,NNE,20,0.0,3.0,56,0.00,,,0.00,meteohub,2013-06-17 04:09:00,
2013-06-16 22:12:00,52.5,37.8,29.81,NNE,20,2.0,3.0,57,0.00,,,0.00,meteohub,2013-06-17 04:12:00,
2013-06-16 22:18:00,52.2,37.4,29.81,NNE,20,4.0,4.0,57,0.00,,,0.00,meteohub,2013-06-17 04:18:00,
2013-06-16 22:24:00,52.0,37.2,29.81,NNE,20,0.0,5.0,57,0.00,,,0.00,meteohub,2013-06-17 04:24:00,
2013-06-16 22:30:00,51.4,36.7,29.81,NNE,20,4.0,5.0,57,0.00,,,0.00,meteohub,2013-06-17 04:30:00,
2013-06-16 22:36:00,51.3,37.4,29.81,NNW,331,5.0,7.0,59,0.00,,,0.00,meteohub,2013-06-17 04:36:00,
2013-06-16 22:42:00,51.3,37.4,29.82,NNW,331,2.0,7.0,59,0.00,,,0.00,meteohub,2013-06-17 04:42:00,
2013-06-16 22:48:00,51.4,37.6,29.83,NNW,331,2.0,7.0,59,0.00,,,0.00,meteohub,2013-06-17 04:48:00,
2013-06-16 22:54:00,51.8,37.6,29.83,NNW,331,3.0,7.0,58,0.00,,,0.00,meteohub,2013-06-17 04:54:00,
2013-06-16 23:00:00,52.5,37.2,29.82,NNW,330,3.0,7.0,56,0.00,,,0.00,meteohub,2013-06-17 05:00:00,
2013-06-16 23:06:00,53.8,37.6,29.82,NW,312,4.0,7.0,54,0.00,,,0.00,meteohub,2013-06-17 05:06:00,
2013-06-16 23:12:00,54.0,37.2,29.83,NW,320,4.0,8.0,53,0.00,,,0.00,meteohub,2013-06-17 05:12:00,
2013-06-16 23:18:00,53.6,37.4,29.82,NW,320,0.0,8.0,54,0.00,,,0.00,meteohub,2013-06-17 05:18:00,
2013-06-16 23:24:00,53.2,37.0,29.82,NW,320,4.0,8.0,54,0.00,,,0.00,meteohub,2013-06-17 05:24:00,
2013-06-16 23:31:00,52.9,36.7,29.83,NW,320,1.0,5.0,54,0.00,,,0.00,meteohub,2013-06-17 05:31:00,
2013-06-16 23:37:00,52.5,36.3,29.83,NW,320,1.0,5.0,54,0.00,,,0.00,meteohub,2013-06-17 05:37:00,
2013-06-16 23:42:00,52.0,35.8,29.83,NW,320,1.0,4.0,54,0.00,,,0.00,meteohub,2013-06-17 05:42:00,
2013-06-16 23:49:00,51.6,36.0,29.82,NW,320,3.0,4.0,55,0.00,,,0.00,meteohub,2013-06-17 05:49:00,
2013-06-16 23:55:00,51.6,36.0,29.81,NW,320,1.0,5.0,55,0.00,,,0.00,meteohub,2013-06-17 05:55:00,